GW4243 Weather Reports


time (UTC)temp
C
wind
direction
speed
KPH
gust
KPH
rain 1hr
cm
rain 24hr
cm
rain mn
cm
humidity
%
barometer
mb
20260507162028 15 0 0.0 4.8 0.00 0.38 0.36 69 1013.8
20260507161545 15 185 0.0 8.0 0.00 0.38 0.36 68 1013.7
20260507161028 15 0 0.0 8.0 0.00 0.38 0.36 68 1013.8
20260507160526 15 216 1.6 8.0 0.00 0.38 0.36 67 1013.8
20260507160039 15 241 0.0 3.2 0.00 0.38 0.36 66 1013.8
20260507155529 16 0 0.0 3.2 0.00 0.38 0.36 67 1013.7
20260507155027 16 0 0.0 3.2 0.00 0.38 0.36 66 1013.7
20260507154537 16 0 0.0 4.8 0.00 0.38 0.36 70 1013.6
20260507154025 15 244 0.0 11.3 0.00 0.38 0.36 66 1013.7
20260507153530 15 244 1.6 11.3 0.00 0.38 0.36 66 1013.8
20260507153042 16 0 1.6 6.4 0.00 0.38 0.36 63 1013.7
20260507152528 16 0 0.0 9.7 0.00 0.38 0.36 68 1013.7
20260507152031 16 208 1.6 9.7 0.00 0.38 0.36 66 1013.7
20260507151540 15 0 0.0 1.6 0.00 0.38 0.36 69 1013.7
20260507151026 15 0 0.0 1.6 0.00 0.38 0.36 71 1013.6
20260507150527 14 0 0.0 1.6 0.00 0.38 0.36 73 1013.7
20260507150041 14 0 0.0 0.0 0.00 0.38 0.36 73 1013.7
20260507145528 13 0 0.0 0.0 0.00 0.41 0.36 74 1013.8
20260507145027 13 0 0.0 1.6 0.00 0.41 0.36 74 1013.8
20260507144537 14 0 0.0 3.2 0.00 0.41 0.36 74 1013.9
20260507144027 14 0 0.0 3.2 0.00 0.41 0.36 73 1013.8
20260507143526 14 0 0.0 6.4 0.00 0.41 0.36 72 1013.9
20260507143051 15 0 0.0 6.4 0.00 0.41 0.36 68 1013.9
20260507142526 15 213 1.6 6.4 0.00 0.41 0.36 66 1013.8
20260507142030 15 207 0.0 8.0 0.00 0.41 0.36 71 1013.8
20260507141548 15 0 0.0 8.0 0.00 0.41 0.36 71 1013.9
20260507141028 16 208 3.2 8.0 0.00 0.41 0.36 62 1013.9
20260507140530 16 199 1.6 8.0 0.00 0.41 0.36 64 1013.9
20260507140041 16 211 3.2 8.0 0.00 0.41 0.36 63 1013.9
20260507135528 16 211 1.6 8.0 0.00 0.64 0.36 67 1013.9
20260507135031 15 0 0.0 3.2 0.00 0.64 0.36 73 1013.9
20260507134539 15 201 0.0 3.2 0.00 0.64 0.36 74 1014.0
20260507134026 15 0 0.0 3.2 0.00 0.64 0.36 74 1014.1
20260507133527 15 0 0.0 8.0 0.00 0.64 0.36 75 1014.1
20260507133107 15 212 3.2 8.0 0.00 0.64 0.36 69 1014.1
20260507132534 15 231 1.6 8.0 0.00 0.64 0.36 64 1014.1
20260507132026 15 0 1.6 8.0 0.00 0.64 0.36 68 1014.2
20260507131543 15 217 0.0 6.4 0.00 0.64 0.36 68 1014.2
20260507131026 15 221 1.6 6.4 0.00 0.64 0.36 67 1014.2
20260507130529 14 228 0.0 4.8 0.00 0.64 0.36 76 1014.2
20260507130045 14 0 0.0 6.4 0.00 0.64 0.36 76 1014.3
20260507125526 15 0 0.0 6.4 0.00 0.84 0.36 75 1014.3
20260507125026 15 0 1.6 6.4 0.00 0.84 0.36 70 1014.3
20260507124536 15 0 0.0 6.4 0.00 0.84 0.36 71 1014.4
20260507124026 14 0 0.0 6.4 0.00 0.84 0.36 76 1014.4
20260507123531 13 0 0.0 8.0 0.00 0.84 0.36 79 1014.4
20260507123047 13 209 1.6 8.0 0.00 0.84 0.36 76 1014.5
20260507122526 13 209 1.6 8.0 0.00 0.84 0.36 74 1014.5
20260507122026 13 200 3.2 8.0 0.00 0.84 0.36 74 1014.4
20260507121542 13 180 3.2 8.0 0.00 0.84 0.36 76 1014.5
20260507121027 13 204 0.0 8.0 0.00 0.84 0.36 77 1014.5
20260507120526 13 0 1.6 8.0 0.00 0.84 0.36 78 1014.5
20260507120039 13 215 1.6 6.4 0.00 0.84 0.36 77 1014.5
20260507115527 13 0 1.6 9.7 0.00 0.94 0.36 81 1014.5
20260507115027 13 210 1.6 9.7 0.00 0.94 0.36 75 1014.5
20260507114549 13 205 1.6 8.0 0.00 0.94 0.36 75 1014.6
20260507114026 13 219 1.6 8.0 0.00 0.94 0.36 75 1014.5
20260507113527 14 0 3.2 6.4 0.00 0.94 0.36 75 1014.5
20260507113038 14 204 1.6 6.4 0.00 0.94 0.36 78 1014.6
20260507112526 12 220 0.0 4.8 0.00 0.94 0.36 81 1014.6
20260507112029 12 0 0.0 4.8 0.00 0.94 0.36 87 1014.6
20260507111537 12 0 0.0 6.4 0.00 0.94 0.36 87 1014.7
20260507111026 11 0 0.0 6.4 0.00 0.94 0.36 88 1014.7
20260507110526 12 0 0.0 4.8 0.00 0.94 0.36 88 1014.8
20260507110042 12 0 0.0 4.8 0.00 0.94 0.36 86 1014.8
20260507105525 12 0 1.6 6.4 0.00 1.07 0.36 82 1014.8
20260507105028 12 0 0.0 6.4 0.00 1.07 0.36 83 1014.8
20260507104538 12 0 0.0 6.4 0.00 1.07 0.36 83 1014.9
20260507104027 12 0 0.0 4.8 0.00 1.07 0.36 84 1014.8
20260507103529 13 0 0.0 8.0 0.00 1.07 0.36 81 1014.8
20260507103044 13 194 0.0 8.0 0.00 1.07 0.36 80 1014.9
20260507102527 14 213 1.6 8.0 0.00 1.07 0.36 78 1014.8
20260507102027 13 0 1.6 6.4 0.00 1.07 0.36 79 1014.9
20260507101540 12 0 0.0 4.8 0.00 1.07 0.36 87 1014.8
20260507101026 11 0 0.0 4.8 0.00 1.07 0.36 90 1014.9
20260507100526 12 0 0.0 3.2 0.00 1.07 0.36 88 1015.0
20260507100039 12 0 0.0 6.4 0.00 1.07 0.36 81 1015.1
20260507095526 12 0 1.6 11.3 0.00 1.09 0.36 80 1015.1
20260507095025 12 227 1.6 12.9 0.00 1.09 0.36 79 1015.0
20260507094547 12 188 4.8 12.9 0.00 1.09 0.36 81 1015.1
20260507094026 12 216 1.6 12.9 0.00 1.09 0.36 84 1015.1
20260507093526 12 0 0.0 12.9 0.00 1.09 0.36 84 1015.1
20260507093040 12 213 4.8 12.9 0.00 1.09 0.36 83 1015.1
20260507092526 12 230 1.6 9.7 0.00 1.09 0.36 84 1015.1
20260507092026 12 223 4.8 16.1 0.00 1.09 0.36 86 1015.1
20260507091538 11 0 4.8 16.1 0.00 1.09 0.36 86 1015.0
20260507091027 11 0 0.0 4.8 0.00 1.09 0.36 88 1014.9
20260507090526 11 203 0.0 6.4 0.00 1.09 0.36 87 1014.9
20260507090037 11 0 0.0 6.4 0.00 1.09 0.36 90 1014.9
20260507085526 11 203 1.6 6.4 0.00 1.09 0.36 93 1014.9
20260507085027 10 0 1.6 6.4 0.00 1.09 0.36 94 1014.8
20260507084540 10 203 0.0 3.2 0.00 1.09 0.36 95 1014.8
20260507084027 10 0 0.0 0.0 0.00 1.09 0.36 94 1014.7
20260507083526 10 0 0.0 0.0 0.00 1.09 0.36 94 1014.7
20260507083038 10 0 0.0 6.4 0.00 1.09 0.36 93 1014.7
20260507082527 10 0 0.0 6.4 0.00 1.09 0.36 93 1014.7
20260507082026 10 0 1.6 6.4 0.00 1.09 0.36 93 1014.7
20260507081539 10 203 1.6 6.4 0.00 1.09 0.36 94 1014.7
20260507081028 10 0 1.6 4.8 0.00 1.09 0.36 95 1014.6
20260507080525 10 207 0.0 4.8 0.00 1.09 0.36 96 1014.7
20260507080041 10 0 0.0 4.8 0.00 1.09 0.36 96 1014.7
20260507075526 10 0 0.0 3.2 0.00 1.09 0.36 97 1014.7
20260507075026 9 0 0.0 3.2 0.00 1.09 0.36 97 1014.6
20260507074542 9 0 0.0 1.6 0.00 1.09 0.36 97 1014.6
20260507074027 9 0 0.0 1.6 0.00 1.09 0.36 97 1014.5
20260507073526 9 0 0.0 0.0 0.00 1.09 0.36 97 1014.5
20260507073043 9 0 0.0 1.6 0.00 1.09 0.36 97 1014.5
20260507072527 9 0 0.0 1.6 0.03 1.09 0.36 97 1014.5
20260507072026 9 0 0.0 0.0 0.03 1.09 0.36 97 1014.5
20260507071539 9 0 0.0 1.6 0.03 1.09 0.36 97 1014.4
20260507071026 9 0 0.0 1.6 0.03 1.09 0.36 97 1014.4
20260507070526 9 0 0.0 0.0 0.00 1.07 0.33 97 1014.3
20260507070045 9 0 0.0 0.0 0.03 1.07 0.33 97 1014.3
20260507065526 9 0 0.0 0.0 0.03 1.07 0.33 97 1014.3
20260507065026 9 0 0.0 0.0 0.03 1.07 0.33 97 1014.2
20260507064545 9 0 0.0 0.0 0.05 1.07 0.33 97 1014.3
20260507064028 9 0 0.0 0.0 0.05 1.07 0.33 97 1014.2
20260507063526 8 0 0.0 0.0 0.05 1.07 0.33 97 1014.2
20260507063043 8 0 0.0 0.0 0.05 1.07 0.33 97 1014.2
20260507062526 8 0 0.0 0.0 0.03 1.04 0.30 97 1014.2
20260507062026 8 0 0.0 0.0 0.03 1.04 0.30 97 1014.2
20260507061539 8 0 0.0 0.0 0.03 1.04 0.30 97 1014.2
20260507061025 8 0 0.0 0.0 0.05 1.04 0.30 97 1014.1
20260507060526 8 0 0.0 0.0 0.05 1.04 0.30 97 1014.1
20260507060039 8 0 0.0 0.0 0.03 1.02 0.28 97 1014.0
20260507055527 8 0 0.0 0.0 0.03 1.02 0.28 97 1014.0
20260507055026 8 0 0.0 0.0 0.03 1.02 0.28 97 1014.0
20260507054538 8 0 0.0 0.0 0.00 1.02 0.28 97 1013.9
20260507054026 8 0 0.0 0.0 0.03 1.02 0.28 97 1013.9
20260507053526 8 0 0.0 0.0 0.03 1.02 0.28 97 1013.9
20260507053037 8 0 0.0 0.0 0.03 1.02 0.28 97 1013.7
20260507052526 8 0 0.0 0.0 0.03 1.02 0.28 97 1013.7
20260507052026 8 0 0.0 0.0 0.03 1.02 0.28 97 1013.6
20260507051537 8 0 0.0 0.0 0.03 1.02 0.28 97 1013.7
20260507051025 8 0 0.0 0.0 0.00 0.99 0.25 97 1013.5
20260507050526 8 0 0.0 0.0 0.03 0.99 0.25 97 1013.5
20260507050041 8 0 0.0 0.0 0.03 0.99 0.25 97 1013.3
20260507045527 8 0 0.0 0.0 0.03 0.99 0.25 97 1013.3
20260507045029 8 0 0.0 0.0 0.03 0.99 0.25 97 1013.3
20260507044555 8 0 0.0 0.0 0.03 0.99 0.25 97 1013.2
20260507044029 8 0 0.0 0.0 0.00 0.97 0.23 97 1013.2
20260507043525 8 0 0.0 0.0 0.00 0.97 0.23 97 1013.1
20260507043041 8 0 0.0 0.0 0.00 0.97 0.23 97 1013.1
20260507042526 8 0 0.0 0.0 0.00 0.97 0.23 97 1013.0
20260507042030 8 0 0.0 0.0 0.00 0.97 0.23 97 1013.1
20260507041545 8 0 0.0 0.0 0.00 0.97 0.23 97 1013.0
20260507041026 8 0 0.0 0.0 0.03 0.97 0.23 97 1013.0
20260507040527 8 0 0.0 0.0 0.00 0.94 0.20 97 1013.0
20260507040043 8 0 0.0 0.0 0.00 0.94 0.20 97 1012.9
20260507035529 8 0 0.0 0.0 0.00 0.94 0.20 97 1012.9
20260507035026 8 0 0.0 0.0 0.03 0.94 0.20 97 1012.9
20260507034542 8 0 0.0 0.0 0.03 0.94 0.20 97 1012.9
20260507034027 8 0 0.0 0.0 0.03 0.94 0.20 97 1012.9
20260507033526 8 0 0.0 0.0 0.05 0.94 0.20 97 1012.8
20260507033050 8 0 0.0 0.0 0.05 0.94 0.20 97 1012.8
20260507032527 8 0 0.0 0.0 0.05 0.94 0.20 97 1012.8
20260507032033 8 0 0.0 0.0 0.05 0.94 0.20 97 1012.8
20260507031553 8 0 0.0 0.0 0.08 0.94 0.20 97 1012.8
20260507031027 7 0 0.0 0.0 0.05 0.94 0.18 97 1012.7
20260507030526 7 0 0.0 0.0 0.05 0.94 0.18 97 1012.7
20260507030100 7 0 0.0 0.0 0.08 0.94 0.18 97 1012.7
20260507025525 7 0 0.0 0.0 0.08 0.94 0.18 97 1012.7
20260507025028 7 0 0.0 0.0 0.05 0.91 0.18 97 1012.7
20260507024604 7 0 0.0 0.0 0.08 0.91 0.18 97 1012.7
20260507024026 7 0 0.0 0.0 0.08 0.91 0.18 97 1012.7
20260507023526 8 0 0.0 0.0 0.08 0.89 0.15 97 1012.7
20260507023037 8 0 0.0 0.0 0.08 0.89 0.15 97 1012.7
20260507022526 8 0 0.0 0.0 0.08 0.89 0.15 97 1012.6
20260507022026 8 0 0.0 0.0 0.08 0.86 0.13 97 1012.6
20260507021551 7 0 0.0 0.0 0.08 0.86 0.13 97 1012.5
20260507021026 8 0 0.0 0.0 0.08 0.86 0.13 97 1012.5
20260507020526 7 0 0.0 0.0 0.08 0.86 0.13 97 1012.4
20260507020053 8 0 0.0 0.0 0.08 0.84 0.10 97 1012.4
20260507015525 8 0 0.0 0.0 0.08 0.84 0.10 97 1012.4
20260507015026 8 0 0.0 0.0 0.08 0.84 0.10 97 1012.3
20260507014549 8 0 0.0 0.0 0.08 0.84 0.08 97 1012.3
20260507014027 8 0 0.0 0.0 0.08 0.84 0.08 97 1012.3
20260507013526 8 0 0.0 0.0 0.05 0.81 0.08 97 1012.2
20260507013041 8 0 0.0 0.0 0.05 0.81 0.08 97 1012.3
20260507012529 8 0 0.0 0.0 0.03 0.79 0.05 97 1012.2
20260507012027 8 0 0.0 0.0 0.03 0.79 0.05 97 1012.2
20260507011544 8 0 0.0 0.0 0.00 0.76 0.03 97 1012.2
20260507011031 8 0 0.0 0.0 0.00 0.76 0.03 97 1012.2
20260507010526 8 0 0.0 0.0 0.00 0.76 0.03 97 1012.1
20260507010043 8 0 0.0 0.0 0.00 0.76 0.03 97 1012.1
20260507005528 8 0 0.0 0.0 0.00 0.76 0.03 97 1012.1
20260507005032 8 0 0.0 0.0 0.00 0.74 0.00 97 1012.1
20260507004536 8 0 0.0 0.0 0.00 0.74 0.00 97 1012.0
20260507004027 8 0 0.0 0.0 0.00 0.74 0.00 97 1012.0
20260507003526 8 0 0.0 0.0 0.00 0.74 0.00 97 1012.0
20260507003039 8 0 0.0 0.0 0.00 0.74 0.00 97 1012.0
20260507002526 8 0 0.0 0.0 0.00 0.74 0.00 97 1011.9
20260507002026 8 0 0.0 0.0 0.00 0.74 0.00 97 1011.9
20260507001539 8 0 0.0 0.0 0.00 0.74 0.00 97 1011.8
20260507001025 8 0 0.0 0.0 0.00 0.74 0.00 97 1011.8
20260507000526 8 0 0.0 0.0 0.00 0.74 0.00 97 1011.7
20260507000039 8 0 0.0 0.0 0.00 0.74 0.00 97 1011.7
20260506235526 8 0 0.0 0.0 0.00 0.74 0.00 97 1011.8
20260506235025 8 0 0.0 0.0 0.00 0.74 0.00 97 1011.7
20260506234551 8 0 0.0 0.0 0.00 0.74 0.00 97 1011.8
20260506234025 8 0 0.0 0.0 0.00 0.74 0.00 97 1011.8
20260506233527 8 0 0.0 0.0 0.00 0.74 0.00 97 1011.8
20260506233046 8 0 0.0 0.0 0.00 0.74 0.00 97 1011.9
20260506232526 8 0 0.0 0.0 0.00 0.74 0.00 97 1011.9
20260506232025 8 0 0.0 0.0 0.00 0.74 0.00 97 1011.8
20260506231549 8 0 0.0 0.0 0.00 0.74 0.00 97 1011.9
20260506231026 8 0 0.0 0.0 0.00 0.74 0.00 97 1011.8
20260506230529 8 0 0.0 0.0 0.00 0.74 0.00 97 1011.8
20260506230041 8 0 0.0 0.0 0.00 0.74 0.00 97 1011.8
20260506225526 8 0 0.0 0.0 0.00 0.74 0.00 97 1011.8
20260506225030 8 0 0.0 0.0 0.00 0.74 0.00 97 1011.8
20260506224542 8 0 0.0 0.0 0.00 0.74 0.00 97 1011.8
20260506224025 8 0 0.0 0.0 0.00 0.74 0.00 97 1011.8
20260506223527 8 0 0.0 0.0 0.00 0.74 0.00 97 1011.8
20260506223038 8 0 0.0 0.0 0.00 0.74 0.00 97 1011.8
20260506222526 8 0 0.0 0.0 0.00 0.74 0.00 97 1011.8
20260506222027 8 0 0.0 0.0 0.00 0.74 0.00 97 1011.8
20260506221538 8 0 0.0 0.0 0.00 0.74 0.00 97 1011.8
20260506221026 8 0 0.0 0.0 0.00 0.74 0.00 97 1011.8
20260506220526 8 0 0.0 0.0 0.00 0.74 0.00 97 1011.9
20260506220037 8 0 0.0 0.0 0.00 0.74 0.00 97 1011.8
20260506215526 8 0 0.0 0.0 0.00 0.74 0.74 97 1011.9
20260506215026 8 0 0.0 0.0 0.00 0.74 0.74 97 1011.8
20260506214537 8 0 0.0 0.0 0.00 0.74 0.74 97 1011.8
20260506214029 8 0 0.0 0.0 0.00 0.74 0.74 97 1011.8
20260506213526 8 0 0.0 0.0 0.00 0.74 0.74 97 1011.7
20260506213042 8 0 0.0 0.0 0.00 0.74 0.74 97 1011.8
20260506212527 8 0 0.0 0.0 0.00 0.74 0.74 97 1011.8
20260506212028 8 0 0.0 0.0 0.00 0.74 0.74 97 1011.7
20260506211539 8 0 0.0 0.0 0.00 0.74 0.74 97 1011.7
20260506211026 8 0 0.0 0.0 0.00 0.74 0.74 97 1011.7
20260506210526 8 0 0.0 0.0 0.00 0.74 0.74 97 1011.7
20260506210038 8 0 0.0 0.0 0.00 0.74 0.74 97 1011.7
20260506205528 8 0 0.0 0.0 0.00 0.74 0.74 97 1011.7
20260506205025 8 0 0.0 0.0 0.00 0.74 0.74 97 1011.5
20260506204540 8 0 0.0 0.0 0.00 0.74 0.74 97 1011.5
20260506204025 8 0 0.0 0.0 0.00 0.74 0.74 97 1011.6
20260506203527 8 0 0.0 0.0 0.00 0.74 0.74 97 1011.5
20260506203041 8 0 0.0 0.0 0.00 0.74 0.74 97 1011.4
20260506202526 8 0 0.0 0.0 0.00 0.74 0.74 97 1011.3
20260506202026 8 0 0.0 0.0 0.00 0.74 0.74 97 1011.3
20260506201540 8 0 0.0 0.0 0.00 0.74 0.74 97 1011.3
20260506201027 8 0 0.0 0.0 0.00 0.74 0.74 97 1011.2
20260506200526 8 0 0.0 0.0 0.00 0.74 0.74 97 1011.2
20260506200040 8 0 0.0 0.0 0.00 0.74 0.74 97 1011.1
20260506195529 8 0 0.0 0.0 0.00 0.74 0.74 97 1011.0
20260506195026 8 0 0.0 0.0 0.00 0.74 0.74 97 1010.9
20260506194541 8 0 0.0 0.0 0.00 0.74 0.74 97 1010.8
20260506194025 9 0 0.0 0.0 0.00 0.74 0.74 97 1010.9
20260506193525 9 0 0.0 0.0 0.00 0.74 0.74 97 1010.8
20260506193042 9 0 0.0 0.0 0.00 0.74 0.74 97 1010.9
20260506192527 9 0 0.0 0.0 0.00 0.74 0.74 97 1010.7
20260506192029 9 0 0.0 0.0 0.00 0.74 0.74 97 1010.7
20260506191539 9 0 0.0 0.0 0.00 0.74 0.74 97 1010.7
20260506191026 9 0 0.0 0.0 0.00 0.74 0.74 97 1010.6
20260506190528 9 0 0.0 0.0 0.00 0.74 0.74 97 1010.6
20260506190041 9 0 0.0 0.0 0.00 0.74 0.74 97 1010.6
20260506185526 9 0 0.0 0.0 0.00 0.74 0.74 97 1010.6
20260506185026 10 0 0.0 0.0 0.00 0.74 0.74 97 1010.4
20260506184545 10 0 0.0 0.0 0.00 0.74 0.74 97 1010.4
20260506184026 10 0 0.0 0.0 0.00 0.74 0.74 97 1010.3
20260506183526 10 0 0.0 0.0 0.00 0.74 0.74 97 1010.2
20260506183038 10 0 0.0 0.0 0.00 0.74 0.74 97 1010.3
20260506182525 10 0 0.0 0.0 0.00 0.74 0.74 97 1010.2
20260506182027 10 0 0.0 0.0 0.00 0.74 0.74 97 1010.2
20260506181538 10 0 0.0 0.0 0.00 0.74 0.74 97 1010.2
20260506181027 10 0 0.0 0.0 0.00 0.74 0.74 97 1010.2
20260506180526 10 0 0.0 0.0 0.00 0.74 0.74 97 1010.1
20260506180038 10 0 0.0 0.0 0.00 0.74 0.74 97 1010.1
20260506175526 10 0 0.0 0.0 0.00 0.74 0.74 97 1010.0
20260506175025 10 0 0.0 0.0 0.00 0.74 0.74 97 1010.1
20260506174537 10 0 0.0 0.0 0.00 0.74 0.74 97 1010.0
20260506174028 10 0 0.0 0.0 0.00 0.74 0.74 97 1010.0
20260506173525 10 0 0.0 0.0 0.00 0.74 0.71 97 1009.9
20260506173055 10 0 0.0 0.0 0.00 0.74 0.71 97 1009.7
20260506172525 10 0 0.0 0.0 0.00 0.74 0.71 97 1009.7
20260506172026 10 0 0.0 0.0 0.00 0.74 0.71 97 1009.7
20260506171537 10 0 0.0 0.0 0.00 0.74 0.71 97 1009.6
20260506171029 10 0 0.0 0.0 0.00 0.74 0.71 97 1009.6
20260506170525 10 0 0.0 0.0 0.00 0.74 0.71 97 1009.6
20260506170042 10 0 0.0 0.0 0.00 0.74 0.71 97 1009.5
20260506165526 10 0 0.0 0.0 0.00 0.74 0.71 97 1009.5
20260506165026 10 0 0.0 0.0 0.00 0.74 0.71 97 1009.5
20260506164541 10 0 0.0 0.0 0.00 0.74 0.71 97 1009.4
20260506164027 10 0 0.0 0.0 0.00 0.74 0.71 97 1009.4
20260506163532 10 0 0.0 0.0 0.00 0.74 0.71 97 1009.4
20260506163040 10 0 0.0 0.0 0.00 0.74 0.71 97 1009.3
20260506162526 10 0 0.0 0.0 0.00 0.71 0.69 97 1009.3